Regional Weather Roundup
Issued by NWS Raleigh/Durham, NC

Home | Current Version | Previous Version | Text Only | Print | Product List | Glossary On
Versions: 1 2 3 4 5 6 7 8 9 10 11 12 13 14 15 16 17 18 19 20 21 22 23 24 25 26 27 28 29 30 31 32 33 34 35 36 37 38 39 40 41 42 43 44 45 46 47 48 49 50
000
ASUS42 KRAH 211910
RWRRAH
NORTH CAROLINA WEATHER ROUNDUP
NATIONAL WEATHER SERVICE RALEIGH NC
300 PM EDT SUN SEP 21 2014

NOTE: "FAIR" INDICATES FEW OR NO CLOUDS BELOW 12,000 FEET WITH NO
SIGNIFICANT WEATHER AND/OR OBSTRUCTIONS TO VISIBILITY.

NCZ001-053-055-056-065-067-212000-
WESTERN NORTH CAROLINA

CITY           SKY/WX    TMP DP  RH WIND       PRES   REMARKS
ASHEVILLE      NOT AVBL
JEFFERSON      CLOUDY    72  57  58 W9G22     29.97S
HICKORY        MOSUNNY   84  63  49 W14       29.88F
RUTHERFORDTON  NOT AVBL
MOUNT AIRY     NOT AVBL
BOONE          NOT AVBL
$$

NCZ021-022-025-041-071-084-088-212000-
CENTRAL NORTH CAROLINA

CITY           SKY/WX    TMP DP  RH WIND       PRES   REMARKS
CHARLOTTE      NOT AVBL
GREENSBORO     MOSUNNY   85  63  47 SW9       29.82F
WINSTON-SALEM  MOSUNNY   84  60  44 W8        29.84F
RALEIGH-DURHAM MOSUNNY   86  61  42 NW9       29.81F
FORT BRAGG     SUNNY     87  63  44 W14       29.82S
FAYETTEVILLE   SUNNY     86  61  42 W14G22    29.82F
BURLINGTON     SUNNY     86  61  42 SW12      29.81F
LAURINBURG     SUNNY     86  63  45 W10       29.85F
$$

NCZ011-015-027-028-043-044-047-080-103-212000-
NORTHEASTERN NORTH CAROLINA

CITY           SKY/WX    TMP DP  RH WIND       PRES   REMARKS
ROCKY MT-WILSO MOSUNNY   84  62  47 W7        29.79F
GREENVILLE     MOSUNNY   82  63  51 NW7       29.81F
WASHINGTON     MOSUNNY   80  62  55 NW8       29.78F
ELIZABETH CITY NOT AVBL
MANTEO         CLOUDY    76  70  83 NW9       29.74S
CAPE HATTERAS  PTSUNNY   76  71  85 NW10      29.75R
$$

NCZ078-087-090-091-093-098-101-212000-
SOUTHEASTERN NORTH CAROLINA

CITY           SKY/WX    TMP DP  RH WIND       PRES   REMARKS
LUMBERTON      SUNNY     85  62  46 W9        29.83F
GOLDSBORO      SUNNY     83  66  57 W6        29.79F
KINSTON        SUNNY     82  63  51 W6        29.80F
KENANSVILLE    SUNNY     83  59  44 W7        29.82F
NEW BERN       MOSUNNY   81  59  47 NW9G21    29.81S
CHERRY POINT   MOSUNNY   82  62  50 W15G25    29.81S
BEAUFORT       MOSUNNY   82  66  58 NW14      29.80R
JACKSONVILLE   SUNNY     83  64  52 W13       29.81F
WILMINGTON     MOSUNNY   82  62  50 W12       29.83F
$$



USA.gov is the U.S. government's official web portal to all federal, state and local government web resources and services.